Home > Weather > Dubbo > Past weeks

Flag for Australia Past Weather in Dubbo, New South Wales, Australia — Yesterday and Last 2 Weeks

Now
32 °F

Clear.


Feels Like: 26 °F
Forecast: 34 / 53 °F
Wind: 6 mph from East

Location: Dubbo Airport

Current Time: Jun 30, 2016 at 6:15:35 AM

Latest Report: Jun 30, 2016 at 5:30 AM


Visibility: N/A

Pressure: 30.18 "Hg

Humidity: 93%

Dew Point: 30 °F

Location of DubboLocation

Past Weather in Dubbo — Graph

°F

Dubbo Temperature Yesterday

Maximum temperature yesterday: 55 °F (at 2:00 PM)
Minimum temperature yesterday: 28 °F (at 5:00 AM)
Average temperature yesterday: 41 °F

High & Low Weather Summary for the Past Weeks

 TemperatureHumidityPressure
High66 °F (Jun 15, 1:30 PM)100% (Jun 15, 5:30 AM)30.48 "Hg (Jun 15, 5:30 AM)
Low28 °F (Jun 29, 5:00 AM)40% (Jun 15, 2:00 PM)29.59 "Hg (Jun 19, 3:02 PM)
Average49 °F85%30.03 "Hg
* Reported Jun 15 5:00 AM — Jun 30 5:00 AM, Dubbo, Weather by CustomWeather, © 2016

Note: Actual official high and low records may vary slightly from our data, if they occured in-between our weather recording intervals... More about our weather records

Advertising

Dubbo Weather History for the Previous 24 Hours

Scroll right to see more
 ConditionsComfort  
Time TempWeatherWind HumidityBarometerVisibility
5:00 AM
Thu, Jun 30
30 °FClear.6 mph100%30.18 "HgN/A
4:30 AM30 °FClear.6 mph100%30.18 "HgN/A
4:00 AM30 °FClear.7 mph100%30.18 "HgN/A
3:00 AM30 °FClear.6 mph100%30.18 "Hg6 mi
2:00 AM32 °FClear.5 mph100%30.21 "Hg3 mi
1:30 AM32 °FChilly.5 mph93%30.21 "Hg0 mi
1:00 AM32 °FChilly.7 mph93%30.24 "Hg0 mi
12:30 AM34 °FClear.5 mph93%30.24 "Hg1 mi
12:00 AM34 °FClear.5 mph100%30.24 "HgN/A
11:00 PM
Wed, Jun 29
37 °FClear.6 mph93%30.24 "HgN/A
10:30 PM36 °FClear.8 mph93%30.27 "HgN/A
10:00 PM36 °FClear.7 mph93%30.27 "HgN/A
9:30 PM37 °FClear.5 mph93%30.27 "HgN/A
9:00 PM39 °FClear.No wind93%30.27 "HgN/A
8:30 PM39 °FClear.No wind93%30.27 "HgN/A
8:00 PM41 °FClear.1 mph87%30.27 "HgN/A
7:30 PM41 °FClear.6 mph81%30.27 "HgN/A
7:00 PM41 °FClear.7 mph81%30.27 "HgN/A
6:30 PM45 °FClear.3 mph76%30.27 "HgN/A
6:00 PM43 °FClear.3 mph81%30.27 "HgN/A
5:30 PM48 °FClear.5 mph71%30.27 "HgN/A
5:00 PM52 °FClear.5 mph62%30.27 "HgN/A
4:30 PM55 °FClear.No wind59%30.27 "HgN/A
4:00 PM55 °FSunny.No wind55%30.27 "HgN/A
3:00 PM55 °FSunny.1 mph59%30.27 "HgN/A
2:00 PM55 °FSunny.3 mph55%30.30 "HgN/A
1:30 PM54 °FSunny.5 mph58%30.30 "HgN/A
1:00 PM54 °FSunny.6 mph63%30.30 "HgN/A
12:00 PM52 °FSunny.5 mph62%30.33 "HgN/A
11:30 AM50 °FSunny.8 mph71%30.36 "HgN/A
11:00 AM48 °FSunny.9 mph76%30.36 "HgN/A
10:00 AM43 °FSunny.6 mph93%30.39 "HgN/A
9:00 AM39 °FSunny.8 mph93%30.39 "HgN/A
8:00 AM30 °FScattered clouds.6 mph100%30.39 "Hg0 mi
7:00 AM28 °FScattered clouds.5 mph100%30.36 "Hg0 mi
6:30 AM28 °FPartly sunny.3 mph100%30.36 "Hg0 mi
6:00 AM28 °FChilly.5 mph100%30.36 "Hg0 mi
Weather by CustomWeather, © 2016

See weather overviewHow to use our weather pages